This demonstration page uses our WeatherBlox Daily Observations layout. Learn more.

Left ArrowRight Arrow

Hourly Observations for October 6, 2016

Temp ( °F °C ) Dew Point ( °F °C ) Humidity (%) Winds ( mph kmh ) Pressure ( in mb ) Visibility ( mi km ) Precip ( " mm )
12:53 am 00:53 Clear 71 21.7 56 13.3 59 59 SE 9 15 29.77 1008 10 16 0.00 0.00
1:53 am 01:53 Clear 71 21.7 63 17.2 76 76 SE 12 19 29.75 1008 10 16 0.00 0.00
2:53 am 02:53 Clear 70 21.1 64 17.8 82 82 SE 10 17 29.75 1007 10 16 0.00 0.00
3:53 am 03:53 Clear 69 20.6 64 17.8 84 84 SE 9 15 29.75 1007 10 16 0.00 0.00
4:53 am 04:53 Clear 68 20 64 17.8 87 87 SE 10 17 29.74 1007 10 16 0.00 0.00
5:53 am 05:53 Clear 67 19.4 63 17.2 87 87 SE 10 17 29.75 1007 10 16 0.00 0.00
6:53 am 06:53 Clear 67 19.4 62 16.7 84 84 SE 13 20 29.76 1008 10 16 0.00 0.00
7:53 am 07:53 Sunny 66 18.9 62 16.7 87 87 SE 10 17 29.78 1008 10 16 0.00 0.00
8:53 am 08:53 Sunny 68 20 63 17.2 84 84 SSE 9 15 29.81 1010 10 16 0.00 0.00
9:53 am 09:53 Sunny 74 23.3 64 17.8 71 71 SSE 14 22 29.82 1010 10 16 0.00 0.00
10:53 am 10:53 Sunny 78 25.6 62 16.7 58 58 S 10 17 29.82 1010 10 16 0.00 0.00
11:53 am 11:53 Sunny 83 28.3 57 13.9 41 41 SSW 9 15 29.80 1009 10 16 0.00 0.00
12:53 pm 12:53 Sunny 86 30 52 11 31 31 SW 8 13 29.74 1007 10 16 0.00 0.00
1:53 pm 13:53 Sunny 88 31.1 48 8.9 25 25 SW 8 13 29.77 1008 10 16 0.00 0.00
2:53 pm 14:53 Sunny 90 32.2 44 6.7 20 20 VRB 6 9 29.75 1007 10 16 0.00 0.00
3:53 pm 15:53 Sunny 91 32.8 43 6.1 19 19 WSW 5 7 29.73 1007 10 16 0.00 0.00
4:53 pm 16:53 Sunny 93 33.9 43 6.1 18 18 W 12 19 29.71 1006 10 16 0.00 0.00
5:53 pm 17:53 Sunny 91 32.8 43 6.1 19 19 W 8 13 29.72 1006 10 16 0.00 0.00
6:53 pm 18:53 Sunny 89 31.7 44 6.7 21 21 W 10 17 29.74 1007 10 16 0.00 0.00
7:53 pm 19:53 Clear 81 27.2 47 8.3 30 30 W 7 11 29.76 1008 10 16 0.00 0.00
8:53 pm 20:53 Clear 77 25 47 8.3 35 35 Calm 29.78 1009 10 16 0.00 0.00
9:53 pm 21:53 Clear 73 22.8 55 12.8 53 53 SSE 8 13 29.81 1010 10 16 0.00 0.00
10:53 pm 22:53 Clear 73 22.8 57 13.9 57 57 SE 7 11 29.83 1010 10 16 0.00 0.00
11:53 pm 23:53 Clear 72 22.2 61 16.1 68 68 SSE 9 15 29.83 1010 10 16 0.00 0.00

Powered by AerisWeather